Miscellaneous Local Product
Issued by NWS Hastings, NE

Home | Current Version | Previous Version | Text Only | Print | Product List | Glossary Off
Versions: 1 2 3 4 5 6 7 8 9 10 11 12 13 14 15 16 17 18 19 20 21 22 23 24 25 26 27 28 29 30 31 32 33 34 35 36 37 38 39 40 41 42 43 44 45 46 47 48 49 50

000
AXUS43 KGID 230402
MISGRI

GID CWA HOURLY WEATHER ROUNDUP
NATIONAL WEATHER SERVICE HASTINGS NE
1100 PM CDT FRI AUG 22 2014

NOTE: "FAIR" INDICATES FEW OR NO CLOUDS BELOW 12,000 FEET WITH NO
SIGNIFICANT WEATHER AND/OR OBSTRUCTIONS TO VISIBILITY.

...SOUTH CENTRAL NEBRASKA...

CITY           SKY/WX    TMP DP  RH WIND       PRES   REMARKS
GRAND ISLAND   TSTM      67  66  97 SW16G37   30.00R VSB 1/2
HASTINGS       TSTM      68  64  87 SW7       29.96F FOG
KEARNEY        CLOUDY    66  64  94 E9        29.96R
ORD            LGT RAIN  74  71  91 E7        29.90F
YORK           CLOUDY    73 N/A N/A E3        29.94S
AURORA         TSTM      74  67  80 W28G43    30.00R
LEXINGTON      CLOUDY    67  66  94 S9        29.94R
HOLDREGE       CLOUDY    68  65  92 SE14G21   29.96R
HEBRON         CLOUDY    77  70  80 CALM      29.94R

...NEBRASKA PANHANDLE...

CITY           SKY/WX    TMP DP  RH WIND       PRES   REMARKS
CHADRON        CLOUDY    70  57  63 S8        29.99F
ALLIANCE       LGT RAIN  63  61  93 E5        30.01F
SCOTTSBLUFF    CLOUDY    64  62  93 E12       30.01F
SIDNEY         LGT RAIN  62  59  90 NE8       30.05F

...WESTERN AND NORTH CENTRAL NEBRASKA...

CITY           SKY/WX    TMP DP  RH WIND       PRES   REMARKS
VALENTINE      CLOUDY    71  64  78 E5        30.00S
AINSWORTH      CLOUDY    70  68  93 E5        29.98F
ONEILL         CLOUDY    73  71  93 E9        29.96F
BROKEN BOW     LGT RAIN  74  69  85 E16G25    29.92F
IMPERIAL       LGT RAIN  69  66  90 E7        29.94F
NORTH PLATTE   TSTM      66  64  93 SE16G23   29.98R VSB 1
MCCOOK         CLOUDY    70  67  90 S6        29.95R

...EASTERN NEBRASKA...

CITY           SKY/WX    TMP DP  RH WIND       PRES   REMARKS
NORFOLK        CLOUDY    72  64  76 NE8       29.95F THUNDER
SO SIOUX CITY  CLOUDY    77  72  84 CALM      29.96R
TEKAMAH        MOCLDY    72  70  93 CALM      29.94F
COLUMBUS       MOCLDY    57 N/A N/A NE3       29.96F
ALBION         RAIN      74  71  91 NE10      29.95F
OMAHA EPPLEY   MOCLDY    76  73  91 N7        29.94S
OFFUTT AFB     PTCLDY    74  74 100 NE2       29.93R
MILLARD        PTCLDY    77  74  90 CALM      29.93R
LINCOLN        MOCLDY    77  72  84 NE9       29.94R
NEBRASKA CITY  MOCLDY    76  71  84 E3        29.93R
BEATRICE       MOCLDY    76  73  91 E7        29.92R
FALLS CITY     CLOUDY    76  73  91 E6        29.91R

...NORTHERN KANSAS...

CITY           SKY/WX    TMP DP  RH WIND       PRES   REMARKS
GOODLAND       CLOUDY    65  64  97 E3        30.01S
HILL CITY      TSTM      70  67  90 NW9       29.92F
NORTON         LGT RAIN  68  63  83 N3        29.97R
PHILLIPSBURG   PTCLDY    70  70 100 CALM      29.95R
SMITH CENTER   LGT RAIN  70  64  83 NE12      29.90F
BELOIT         MOCLDY    75  70  83 N14       29.88F
HAYS           CLOUDY    73  64  73 N9        29.91F
RUSSELL        CLOUDY    77  68  73 E7        29.87F
CONCORDIA      CLOUDY    79  72  79 NW8       29.92R
SALINA         CLOUDY    84  69  60 SE9       29.86S
TOPEKA         MOCLDY    81  74  79 E3        29.91R



USA.gov is the U.S. government's official web portal to all federal, state and local government web resources and services.